Location: Brede
(50.9167°N, 0.6000°E)
Time: 21:02:31
(UTC+00:00)

Vanguard 1 Rocket - Pass Details

Date: 05 December 2020
Orbit: 655 x 4221 km, 34.3° (Epoch: 17 January)

Event Time Altitude Azimuth Distance (km) Brightness Sun altitude
Exits shadow 01:05:08 35° 125° (SE) 5,001 10.9 -57.8°
Drops below altitude 10° 01:15:19 10° 103° (ESE) 6,059 11.7 -56.8°
Sets 01:19:23 0° 97° (E) 6,684 12.1 -56.4°
